Starlink 1627

operational
NORAD ID: 46168 Int'l Des: 2020-057 Owner: SPXS Country: US Constellation: starlink
LEOCIRCULARSTARLINK_TYPE

Über Starlink 1627

Beschreibung wird geladen...

Live-Position

3D-Globus wird geladen...

Nächste Überflüge

Höhenverlauf

Altitude vs Time

uPlot chart will show altitude changes over time

Zweizeiliger Elementsatz

1 46168U 20057BD 25308.82975127 .00096161 00000-0 28507-2 0 9995
2 46168 53.0550 104.2724 0001303 296.4457 63.6411 15.34065686287988
Epoch: 4. Nov. 2025 • Age: 6 hours

Aktueller Status

Höhe 466.7 km
Geschwindigkeit 7.63 km/s
Subsatellitenpunkt -10.61°S, 134.94°W
Startdatum 18. Aug. 2020
Alter 5.2 years
Typ internet

Technische Details

Klassifizierung Payload
Masse 260.00 kg
Trockenmasse 248.00 kg
Gesamtmasse 260.00 kg
Länge 0.20 m
Durchmesser 2.80 m
Spannweite 9.00 m
Form Box + pan
Hersteller SPXS
Bus-Typ Starlink
Phasenstatus In Orbit
Besitzer/Staat SPXS/US

Große Konstellationen

Loading constellations...